When you browse on this site, cookies collect data to enhance your experience and personalize the content and advertising you see.
Visit our Privacy Policy to learn more. By continuing to use the site, you agree to this use of cookies and data.
  • In United Kingdom
  • List of Countries
  • For 7 days
  • Water Temperature
  • Satellite Maps
  • Weather Map
  • Weather Widgets
  • user-avatar
    Login

    Hourly Weather Ischgl

    Today, 12 December, Wednesday

    Time Temperature Precipitation Wind Pressure Humidity
    00:00 -20°C° 0 mm 2 mps 567 mmHg 86%
    01:00 -20°C° 0 mm 2 mps 567 mmHg 84%
    02:00 -20°C° 0 mm 2 mps 567 mmHg 83%
    03:00 -21°C° 0 mm 2 mps 566 mmHg 82%
    04:00 -21°C° 0 mm 2 mps 566 mmHg 81%
    05:00 -21°C° 0 mm 2 mps 566 mmHg 80%
    06:00 -21°C° 0 mm 2 mps 566 mmHg 80%
    07:00 -21°C° 0 mm 2 mps 566 mmHg 80%
    08:00 -19°C° 0 mm 2 mps 567 mmHg 79%
    09:00 -15°C° 0 mm 1 mps 568 mmHg 78%
    10:00 -14°C° 0 mm 1 mps 569 mmHg 78%
    11:00 -12°C° 0 mm 1 mps 570 mmHg 74%
    12:00 -11°C° 0 mm 1 mps 570 mmHg 71%
    13:00 -9°C° 0 mm 1 mps 570 mmHg 68%
    14:00 -11°C° 0 mm 1 mps 569 mmHg 72%
    15:00 -13°C° 0 mm 1 mps 568 mmHg 76%
    16:00 -14°C° 0 mm 1 mps 567 mmHg 81%
    17:00 -15°C° 0 mm 1 mps 567 mmHg 79%
    18:00 -16°C° 0 mm 1 mps 566 mmHg 77%
    19:00 -17°C° 0 mm 1 mps 566 mmHg 75%
    20:00 -18°C° 0 mm 1 mps 566 mmHg 73%
    21:00 -20°C° 0 mm 2 mps 565 mmHg 70%
    22:00 -20°C° 0 mm 2 mps 565 mmHg 68%
    23:00 -20°C° 0 mm 2 mps 565 mmHg 67%

    Tomorrow, 13 December, Thursday

    Time Temperature Precipitation Wind Pressure Humidity
    00:00 -20°C° 0 mm 2 mps 565 mmHg 66%
    01:00 -20°C° 0 mm 2 mps 565 mmHg 65%
    02:00 -20°C° 0 mm 2 mps 564 mmHg 65%
    03:00 -21°C° 0 mm 2 mps 564 mmHg 65%
    04:00 -21°C° 0 mm 2 mps 564 mmHg 65%
    05:00 -21°C° 0 mm 2 mps 563 mmHg 65%
    06:00 -21°C° 0 mm 2 mps 563 mmHg 65%
    07:00 -21°C° 0 mm 2 mps 563 mmHg 65%
    08:00 -20°C° 0 mm 2 mps 563 mmHg 67%
    09:00 -18°C° 0 mm 2 mps 564 mmHg 68%
    10:00 -17°C° 0 mm 2 mps 565 mmHg 70%
    11:00 -15°C° 0 mm 2 mps 565 mmHg 70%
    12:00 -14°C° 0 mm 2 mps 566 mmHg 71%
    13:00 -12°C° 0 mm 2 mps 566 mmHg 71%
    14:00 -13°C° 0 mm 2 mps 565 mmHg 75%
    15:00 -15°C° 0 mm 2 mps 564 mmHg 78%
    16:00 -16°C° 0 mm 2 mps 564 mmHg 82%
    17:00 -17°C° 0 mm 2 mps 563 mmHg 81%
    18:00 -18°C° 0 mm 2 mps 563 mmHg 81%
    19:00 -19°C° 0 mm 2 mps 563 mmHg 81%
    20:00 -19°C° 0 mm 2 mps 563 mmHg 80%
    21:00 -18°C° 0 mm 2 mps 563 mmHg 79%
    22:00 -18°C° 0 mm 2 mps 563 mmHg 78%
    23:00 -18°C° 0 mm 2 mps 563 mmHg 78%

    Day after tomorrow, 14 December, Friday

    Time Temperature Precipitation Wind Pressure Humidity
    00:00 -18°C° 0 mm 2 mps 563 mmHg 77%
    01:00 -18°C° 0 mm 2 mps 564 mmHg 77%
    02:00 -17°C° 0 mm 2 mps 564 mmHg 77%
    03:00 -17°C° 0 mm 2 mps 564 mmHg 78%
    04:00 -17°C° 0 mm 2 mps 564 mmHg 78%
    05:00 -17°C° 0 mm 2 mps 564 mmHg 79%
    06:00 -17°C° 0 mm 2 mps 564 mmHg 79%
    07:00 -17°C° 0 mm 2 mps 564 mmHg 80%
    08:00 -15°C° 0 mm 2 mps 565 mmHg 80%
    09:00 -12°C° 0 mm 1 mps 566 mmHg 80%
    10:00 -10°C° 0 mm 1 mps 567 mmHg 80%
    11:00 -9°C° 0 mm 1 mps 568 mmHg 78%
    12:00 -8°C° 0 mm 1 mps 568 mmHg 76%
    13:00 -7°C° 0 mm 1 mps 569 mmHg 74%
    14:00 -8°C° 0 mm 0 mps 568 mmHg 79%
    15:00 -9°C° 0 mm 0 mps 568 mmHg 84%
    16:00 -11°C° 0 mm 0 mps 567 mmHg 89%
    17:00 -12°C° 0 mm 0 mps 567 mmHg 90%
    18:00 -13°C° 0 mm 1 mps 567 mmHg 91%
    19:00 -14°C° 0 mm 1 mps 567 mmHg 91%
    20:00 -14°C° 0 mm 1 mps 567 mmHg 91%
    21:00 -14°C° 0 mm 1 mps 567 mmHg 90%
    22:00 -14°C° 0 mm 1 mps 567 mmHg 89%
    23:00 -15°C° 0 mm 1 mps 567 mmHg 89%

    15 December, Saturday

    Time Temperature Precipitation Wind Pressure Humidity
    00:00 -15°C° 0 mm 1 mps 567 mmHg 88%
    01:00 -15°C° 0 mm 1 mps 567 mmHg 88%
    02:00 -15°C° 0 mm 1 mps 567 mmHg 89%
    03:00 -16°C° 0 mm 1 mps 567 mmHg 90%
    04:00 -16°C° 0 mm 1 mps 567 mmHg 90%
    05:00 -16°C° 0 mm 1 mps 567 mmHg 91%
    06:00 -16°C° 0 mm 1 mps 567 mmHg 91%
    07:00 -16°C° 0 mm 1 mps 567 mmHg 91%
    08:00 -15°C° 0 mm 1 mps 568 mmHg 89%
    09:00 -14°C° 0 mm 1 mps 569 mmHg 86%
    10:00 -13°C° 0 mm 1 mps 570 mmHg 84%
    11:00 -11°C° 0 mm 1 mps 570 mmHg 79%
    12:00 -10°C° 0 mm 1 mps 571 mmHg 74%
    13:00 -8°C° 0 mm 1 mps 571 mmHg 69%
    14:00 -10°C° 0 mm 1 mps 570 mmHg 71%
    15:00 -12°C° 0 mm 1 mps 570 mmHg 73%
    16:00 -13°C° 0 mm 1 mps 569 mmHg 75%
    17:00 -14°C° 0 mm 1 mps 569 mmHg 68%
    18:00 -17°C° 0 mm 2 mps 568 mmHg 60%
    19:00 -18°C° 0 mm 2 mps 568 mmHg 52%
    20:00 -18°C° 0 mm 2 mps 569 mmHg 48%
    21:00 -17°C° 0 mm 2 mps 569 mmHg 43%
    22:00 -17°C° 0 mm 2 mps 569 mmHg 39%
    23:00 -16°C° 0 mm 2 mps 569 mmHg 37%

    16 December, Sunday

    Time Temperature Precipitation Wind Pressure Humidity
    00:00 -16°C° 0 mm 2 mps 570 mmHg 36%
    01:00 -15°C° 0 mm 2 mps 570 mmHg 34%
    02:00 -14°C° 0 mm 2 mps 570 mmHg 37%
    03:00 -12°C° 0 mm 2 mps 570 mmHg 39%
    04:00 -10°C° 0 mm 2 mps 571 mmHg 42%
    05:00 -9°C° 0.2 mm 2 mps 571 mmHg 52%
    06:00 -9°C° 0.2 mm 2 mps 571 mmHg 62%
    07:00 -7°C° 0.2 mm 1 mps 572 mmHg 73%
    08:00 -4°C° 0.5 mm 1 mps 572 mmHg 77%
    09:00 -3°C° 0.5 mm 1 mps 573 mmHg 81%
    10:00 -2°C° 0.5 mm 1 mps 574 mmHg 85%
    11:00 -1°C° 0.1 mm 1 mps 574 mmHg 87%
    12:00 -1°C° 0.1 mm 1 mps 573 mmHg 90%
    13:00 0°C° 0.1 mm 1 mps 573 mmHg 93%
    14:00 0°C° 0.1 mm 1 mps 573 mmHg 91%
    15:00 -1°C° 0.1 mm 1 mps 573 mmHg 89%
    16:00 -1°C° 0.1 mm 1 mps 573 mmHg 87%
    17:00 -1°C° 0.4 mm 1 mps 573 mmHg 87%
    18:00 -2°C° 0.4 mm 1 mps 573 mmHg 86%
    19:00 -2°C° 0.4 mm 1 mps 573 mmHg 86%
    20:00 -2°C° 0.2 mm 1 mps 573 mmHg 86%
    21:00 -3°C° 0.2 mm 1 mps 573 mmHg 85%
    22:00 -3°C° 0.2 mm 1 mps 572 mmHg 85%
    23:00 -3°C° 0.1 mm 1 mps 572 mmHg 84%

    17 December, Monday

    Time Temperature Precipitation Wind Pressure Humidity
    00:00 -6°C° 0.1 mm 2 mps 572 mmHg 83%
    01:00 -6°C° 0.1 mm 2 mps 572 mmHg 82%
    02:00 -6°C° 0.2 mm 2 mps 571 mmHg 82%
    03:00 -6°C° 0.2 mm 2 mps 571 mmHg 83%
    04:00 -7°C° 0.2 mm 2 mps 571 mmHg 83%
    05:00 -7°C° 0.5 mm 2 mps 571 mmHg 85%
    06:00 -4°C° 0.5 mm 1 mps 571 mmHg 88%
    07:00 -4°C° 0.5 mm 1 mps 571 mmHg 90%
    08:00 -4°C° 0.6 mm 1 mps 572 mmHg 90%
    09:00 -3°C° 0.6 mm 1 mps 572 mmHg 91%
    10:00 -3°C° 0.6 mm 1 mps 572 mmHg 91%
    11:00 -4°C° 0.6 mm 2 mps 572 mmHg 92%
    12:00 -4°C° 0.6 mm 2 mps 572 mmHg 92%
    13:00 -3°C° 0.6 mm 2 mps 571 mmHg 93%
    14:00 -4°C° 0.5 mm 2 mps 571 mmHg 92%
    15:00 -4°C° 0.5 mm 2 mps 571 mmHg 92%
    16:00 -4°C° 0.5 mm 2 mps 571 mmHg 91%
    17:00 -5°C° 1.3 mm 2 mps 571 mmHg 93%
    18:00 -3°C° 1.3 mm 1 mps 570 mmHg 94%
    19:00 -3°C° 1.3 mm 1 mps 570 mmHg 96%
    20:00 -6°C° 1.9 mm 2 mps 571 mmHg 96%
    21:00 -6°C° 1.9 mm 2 mps 571 mmHg 96%
    22:00 -6°C° 1.9 mm 2 mps 571 mmHg 97%
    23:00 -6°C° 1.3 mm 2 mps 571 mmHg 97%
    Show more